logo
Search for airport 
image banner adimage banner adimage banner ad
image banner ad

ED0182 - Bueckeburg-Weinberg

Located in , Germany

ICAO - , IATA -

Data provided by Airmate  

General information

Coordinates: N52°15'10" E9°1'11"
Elevation is 262 feet MSL.
Magnetic variation is 3.0000° East
View others Airports in North Rhine-Westphalia

Operational data

Special qualification required
Current time UTC:
Current local time:
Weather at : ETHB - Bueckeburg ( 5 km )
METAR: ETHB 251420Z 23004KT 9999 FEW055 BKN240 23/09 Q1013 BLU+BLU+
TAF: TAF ETHB 251310Z 2514/2523 25005KT 9999 NSW FEW030 BKN120 BECMG 2517/2519 17005KT 9999 NSW BKN070
View NOTAMs / SUP AIP / TFR affecting this airport [VIEW]
Communications frequencies: [VIEW]

Runways:

RWY identifierQFULength (ft)Width (ft)SurfaceLDA (ft)
11110°164098GRASS
29290°164098GRASS

Airport contact information

Address: Germany

Satellite view of ED0182